Idaho Falls, ID

11:27 AM MST on December 09, 2019 (GMT -0700)
Fanning

Weather History for KIDA - November, 2019

Change the Weather History Date:

Friday, November 15, 2019

  Actual Average Record
Temperature  
Mean Temperature 42 °F 33 °F  
Max Temperature 57 °F 43 °F 66 °F (1999)
Min Temperature 26 °F 23 °F -11 °F (1978)
Degree Days  
Heating Degree Days 23 32  
Month to date heating degree days 447 433  
Since 1 July heating degree days 1621 1355  
Cooling Degree Days 0 0  
Month to date cooling degree days 0 0  
Year to date cooling degree days 261 264  
Moisture  
Dew Point 26 °F    
Average Humidity 58    
Maximum Humidity 85    
Minimum Humidity 30    
Precipitation  
Precipitation 0.00 in 0.03 in 0.31 in (1954)
Month to date precipitation 0.00 0.41  
Year to date precipitation 10.67 9.06  
Sea Level Pressure  
Sea Level Pressure 30.16 in    
Wind  
Wind Speed 9 mph (WSW)    
Max Wind Speed 23 mph    
Max Gust Speed 27 mph    
Visibility 10 miles    
Events      
T = Trace of Precipitation, MM = Missing Value Source: NWS Daily Summary

Daily Weather History Graph

Daily Weather History Graph

Search for Another Location

Airport or City:

Astronomy

Nov. 15, 2019 Rise Set
Actual Time 7:21 AM MST 5:03 PM MST
Civil Twilight 6:50 AM MST 5:34 PM MST
Nautical Twilight 6:16 AM MST 6:08 PM MST
Astronomical Twilight 5:42 AM MST 6:42 PM MST
Moon 7:39 PM MST (11/15) 10:25 AM MST (11/15)
Length of Visible Light 10h 43m
Length of Day
9h 41m
Waning Gibbous, 89% of the Moon is Illuminated
Nov 15
Waning Gibbous
Nov 19
Last Quarter
Nov 26
New
Dec 3
First Quarter
Dec 11
Full

Hourly Weather History & Observations

Time (MST) Temp. Windchill Dew Point Humidity Pressure Visibility Wind Dir Wind Speed Gust Speed Precip Events Conditions
12:53 AM 30.9 °F 24.3 °F 24.1 °F 76% 30.19 in 10.0 mi North 6.9 mph - N/A   Clear
1:53 AM 30.9 °F 24.3 °F 24.1 °F 76% 30.19 in 10.0 mi North 6.9 mph - N/A   Clear
3:53 AM 30.0 °F 22.4 °F 24.1 °F 79% 30.15 in 10.0 mi North 8.1 mph - N/A   Clear
4:53 AM 30.9 °F 24.3 °F 24.1 °F 76% 30.17 in 10.0 mi North 6.9 mph - N/A   Clear
5:53 AM 30.9 °F 25.2 °F 24.1 °F 76% 30.20 in 10.0 mi North 5.8 mph - N/A   Clear
6:53 AM 30.0 °F 26.5 °F 23.0 °F 75% 30.20 in 10.0 mi NNE 3.5 mph - N/A   Clear
7:53 AM 28.9 °F 25.2 °F 24.1 °F 82% 30.21 in 10.0 mi NNE 3.5 mph - N/A   Clear
8:53 AM 34.0 °F 31.0 °F 26.1 °F 73% 30.22 in 10.0 mi North 3.5 mph - N/A   Clear
9:53 AM 37.9 °F 34.4 °F 28.0 °F 68% 30.21 in 10.0 mi NNW 4.6 mph - N/A   Mostly Cloudy
10:53 AM 43.0 °F - 28.0 °F 56% 30.21 in 10.0 mi Calm Calm - N/A   Mostly Cloudy
11:53 AM 48.0 °F - 28.9 °F 48% 30.18 in 10.0 mi SSW 5.8 mph - N/A   Clear
12:53 PM 48.9 °F - 28.0 °F 44% 30.16 in 10.0 mi SSW 3.5 mph - N/A   Clear
1:53 PM 54.0 °F - 28.9 °F 38% 30.12 in 10.0 mi SW 8.1 mph - N/A   Clear
2:53 PM 57.0 °F - 27.0 °F 32% 30.09 in 10.0 mi SSW 12.7 mph - N/A   Mostly Cloudy
3:53 PM 54.0 °F - 26.1 °F 34% 30.10 in 10.0 mi SW 11.5 mph - N/A   Clear
4:53 PM 50.0 °F - 27.0 °F 41% 30.11 in 10.0 mi SW 5.8 mph - N/A   Overcast
5:53 PM 48.9 °F - 25.0 °F 39% 30.12 in 10.0 mi SSW 8.1 mph - N/A   Partly Cloudy
7:53 PM 50.0 °F - 28.0 °F 43% 30.13 in 10.0 mi SSW 17.3 mph - N/A   Mostly Cloudy
8:53 PM 48.0 °F - 28.0 °F 46% 30.14 in 10.0 mi SSW 11.5 mph - N/A   Overcast
9:53 PM 46.9 °F - 28.0 °F 48% 30.13 in 10.0 mi SW 17.3 mph - N/A   Mostly Cloudy
10:53 PM 46.0 °F 38.5 °F 28.0 °F 50% 30.11 in 10.0 mi SSW 19.6 mph - N/A   Mostly Cloudy
11:53 PM 46.0 °F 38.8 °F 28.0 °F 50% 30.10 in 10.0 mi SSW 18.4 mph - N/A   Overcast